User: anonymous   Login
Location: Unspecified
(0.0000°N, 0.0000°E)
Time: 22:02:13
(UTC+00:00)
Language:

SO-67 - Orbit

View from above orbital plane
View from above orbital plane
View from above satellite
View from above satellite

Ground track
Ground track

The orbit data is extracted from the following two-line orbital elements,

1 35870U 09049F   18344.21045444  .00005939  00000-0  75305-4 0  9999
2 35870  97.0715   2.5039 0001473 138.5219 278.8352 15.59832561517392
Epoch (UTC): 10 December 2018 05:03:03
Eccentricity: 0.0001473
inclination: 97.0715°
perigee height: 387 km
apogee height: 389 km
right ascension of ascending node: 2.5039°
argument of perigee: 138.5219°
revolutions per day: 15.59832561
mean anomaly at epoch: 278.8352°
orbit number at epoch: 51739

The dashed part of the orbit path shows where the satellite is in the earth's shadow,  

DLR